Meteo orario Zagorze

Oggi, 7 Maggio, Venerdi

Tempo Temperatura Precipitazioni Vento Pressione Umidità
00:00 +8°C° 0.3 mm 1 m/s 732 mm Hg 84%
01:00 +8°C° 0 mm 1 m/s 731 mm Hg 87%
02:00 +8°C° 0.4 mm 1 m/s 731 mm Hg 87%
03:00 +7°C° 0.4 mm 2 m/s 730 mm Hg 87%
04:00 +7°C° 0.4 mm 2 m/s 730 mm Hg 88%
05:00 +8°C° 0.1 mm 3 m/s 730 mm Hg 87%
06:00 +7°C° 0.1 mm 4 m/s 730 mm Hg 85%
07:00 +8°C° 0 mm 5 m/s 730 mm Hg 85%
08:00 +9°C° 0.2 mm 5 m/s 730 mm Hg 82%
09:00 +9°C° 0.2 mm 6 m/s 731 mm Hg 79%
10:00 +10°C° 0.2 mm 7 m/s 731 mm Hg 77%
11:00 +10°C° 0.2 mm 7 m/s 731 mm Hg 75%
12:00 +10°C° 0.2 mm 6 m/s 731 mm Hg 73%
13:00 +11°C° 0.2 mm 6 m/s 731 mm Hg 72%
14:00 +10°C° 0.3 mm 5 m/s 732 mm Hg 73%
15:00 +9°C° 0.3 mm 5 m/s 732 mm Hg 74%
16:00 +9°C° 0.3 mm 5 m/s 732 mm Hg 76%
17:00 +8°C° 0.6 mm 5 m/s 733 mm Hg 76%
18:00 +7°C° 0.6 mm 5 m/s 734 mm Hg 77%
19:00 +6°C° 0.6 mm 5 m/s 735 mm Hg 77%
20:00 +5°C° 0 mm 4 m/s 736 mm Hg 80%
21:00 +4°C° 0 mm 4 m/s 737 mm Hg 83%
22:00 +3°C° 0 mm 4 m/s 737 mm Hg 85%
23:00 +1°C° 0 mm 4 m/s 738 mm Hg 86%

Domani, 8 Maggio, Sabato

Tempo Temperatura Precipitazioni Vento Pressione Umidità
00:00 +1°C° 0 mm 4 m/s 738 mm Hg 87%
01:00 +1°C° 0 mm 4 m/s 739 mm Hg 88%
02:00 +1°C° 0 mm 4 m/s 739 mm Hg 87%
03:00 +1°C° 0 mm 4 m/s 739 mm Hg 85%
04:00 +1°C° 0 mm 4 m/s 740 mm Hg 84%
05:00 +3°C° 0 mm 4 m/s 740 mm Hg 81%
06:00 +3°C° 0 mm 4 m/s 741 mm Hg 78%
07:00 +4°C° 0 mm 4 m/s 741 mm Hg 75%
08:00 +5°C° 0 mm 4 m/s 741 mm Hg 69%
09:00 +6°C° 0 mm 4 m/s 742 mm Hg 63%
10:00 +8°C° 0 mm 5 m/s 742 mm Hg 57%
11:00 +8°C° 0 mm 4 m/s 742 mm Hg 53%
12:00 +10°C° 0 mm 4 m/s 742 mm Hg 49%
13:00 +11°C° 0 mm 4 m/s 742 mm Hg 45%
14:00 +11°C° 0 mm 4 m/s 742 mm Hg 45%
15:00 +12°C° 0 mm 3 m/s 741 mm Hg 45%
16:00 +12°C° 0 mm 3 m/s 741 mm Hg 44%
17:00 +10°C° 0 mm 2 m/s 741 mm Hg 52%
18:00 +10°C° 0 mm 1 m/s 742 mm Hg 60%
19:00 +8°C° 0 mm 1 m/s 742 mm Hg 68%
20:00 +8°C° 0 mm 1 m/s 742 mm Hg 69%
21:00 +7°C° 0 mm 1 m/s 742 mm Hg 70%
22:00 +7°C° 0 mm 1 m/s 742 mm Hg 72%
23:00 +6°C° 0 mm 1 m/s 742 mm Hg 73%

Dopodomani, 9 Maggio, Domenica

Tempo Temperatura Precipitazioni Vento Pressione Umidità
00:00 +5°C° 0 mm 2 m/s 742 mm Hg 74%
01:00 +4°C° 0 mm 2 m/s 742 mm Hg 75%
02:00 +4°C° 0 mm 2 m/s 742 mm Hg 74%
03:00 +4°C° 0 mm 2 m/s 742 mm Hg 73%
04:00 +4°C° 0 mm 2 m/s 742 mm Hg 72%
05:00 +6°C° 0 mm 2 m/s 742 mm Hg 67%
06:00 +8°C° 0 mm 2 m/s 742 mm Hg 62%
07:00 +10°C° 0 mm 2 m/s 742 mm Hg 57%
08:00 +13°C° 0 mm 2 m/s 742 mm Hg 53%
09:00 +14°C° 0 mm 3 m/s 742 mm Hg 49%
10:00 +17°C° 0 mm 3 m/s 741 mm Hg 45%
11:00 +18°C° 0 mm 3 m/s 741 mm Hg 43%
12:00 +19°C° 0 mm 3 m/s 741 mm Hg 41%
13:00 +20°C° 0 mm 3 m/s 741 mm Hg 40%
14:00 +20°C° 0 mm 2 m/s 741 mm Hg 41%
15:00 +20°C° 0 mm 2 m/s 740 mm Hg 42%
16:00 +21°C° 0 mm 2 m/s 740 mm Hg 43%
17:00 +19°C° 0 mm 2 m/s 740 mm Hg 52%
18:00 +16°C° 0 mm 2 m/s 739 mm Hg 60%
19:00 +14°C° 0 mm 2 m/s 739 mm Hg 69%
20:00 +13°C° 0 mm 2 m/s 739 mm Hg 71%
21:00 +12°C° 0 mm 2 m/s 739 mm Hg 73%
22:00 +10°C° 0 mm 2 m/s 739 mm Hg 75%
23:00 +10°C° 0 mm 2 m/s 739 mm Hg 76%

10 Maggio, Lunedi

Tempo Temperatura Precipitazioni Vento Pressione Umidità
00:00 +9°C° 0 mm 2 m/s 739 mm Hg 76%
01:00 +9°C° 0 mm 1 m/s 739 mm Hg 76%
02:00 +8°C° 0 mm 2 m/s 739 mm Hg 76%
03:00 +8°C° 0 mm 2 m/s 739 mm Hg 76%
04:00 +7°C° 0 mm 2 m/s 739 mm Hg 76%
05:00 +9°C° 0 mm 2 m/s 738 mm Hg 71%
06:00 +12°C° 0 mm 2 m/s 738 mm Hg 66%
07:00 +14°C° 0 mm 2 m/s 738 mm Hg 60%
08:00 +17°C° 0 mm 2 m/s 738 mm Hg 55%
09:00 +19°C° 0 mm 3 m/s 738 mm Hg 50%
10:00 +21°C° 0 mm 3 m/s 738 mm Hg 45%
11:00 +22°C° 0 mm 3 m/s 738 mm Hg 43%
12:00 +25°C° 0 mm 3 m/s 738 mm Hg 41%
13:00 +26°C° 0 mm 3 m/s 737 mm Hg 39%
14:00 +26°C° 0 mm 3 m/s 738 mm Hg 41%
15:00 +26°C° 0 mm 3 m/s 738 mm Hg 43%
16:00 +26°C° 0 mm 2 m/s 738 mm Hg 45%
17:00 +24°C° 0 mm 2 m/s 738 mm Hg 54%
18:00 +21°C° 0 mm 1 m/s 738 mm Hg 62%
19:00 +19°C° 0 mm 1 m/s 738 mm Hg 70%
20:00 +18°C° 0 mm 1 m/s 738 mm Hg 72%
21:00 +16°C° 0 mm 1 m/s 738 mm Hg 75%
22:00 +15°C° 0 mm 2 m/s 738 mm Hg 77%
23:00 +15°C° 0 mm 2 m/s 737 mm Hg 79%

11 Maggio, Martedi

Tempo Temperatura Precipitazioni Vento Pressione Umidità
00:00 +14°C° 0 mm 2 m/s 737 mm Hg 80%
01:00 +13°C° 0 mm 2 m/s 737 mm Hg 82%
02:00 +13°C° 0 mm 2 m/s 736 mm Hg 82%
03:00 +13°C° 0 mm 2 m/s 736 mm Hg 83%
04:00 +11°C° 0 mm 3 m/s 736 mm Hg 83%
05:00 +13°C° 0 mm 3 m/s 736 mm Hg 78%
06:00 +16°C° 0 mm 2 m/s 736 mm Hg 72%
07:00 +18°C° 0 mm 2 m/s 736 mm Hg 67%
08:00 +20°C° 0 mm 2 m/s 736 mm Hg 60%
09:00 +22°C° 0 mm 3 m/s 736 mm Hg 54%
10:00 +25°C° 0 mm 3 m/s 736 mm Hg 48%
11:00 +26°C° 0 mm 3 m/s 736 mm Hg 45%
12:00 +27°C° 0 mm 3 m/s 736 mm Hg 41%
13:00 +28°C° 0 mm 3 m/s 735 mm Hg 38%
14:00 +28°C° 0 mm 3 m/s 735 mm Hg 41%
15:00 +28°C° 0 mm 3 m/s 735 mm Hg 44%
16:00 +28°C° 0 mm 3 m/s 735 mm Hg 47%
17:00 +25°C° 0 mm 2 m/s 734 mm Hg 55%
18:00 +23°C° 0 mm 2 m/s 734 mm Hg 63%
19:00 +20°C° 0 mm 2 m/s 734 mm Hg 71%
20:00 +19°C° 0 mm 2 m/s 734 mm Hg 74%
21:00 +17°C° 0 mm 2 m/s 734 mm Hg 78%
22:00 +16°C° 0 mm 2 m/s 734 mm Hg 81%
23:00 +16°C° 0 mm 2 m/s 733 mm Hg 83%

12 Maggio, Mercoledi

Tempo Temperatura Precipitazioni Vento Pressione Umidità
00:00 +15°C° 0 mm 2 m/s 733 mm Hg 85%
01:00 +14°C° 0 mm 2 m/s 733 mm Hg 87%
02:00 +14°C° 0 mm 2 m/s 733 mm Hg 88%
03:00 +13°C° 0 mm 2 m/s 733 mm Hg 89%
04:00 +13°C° 0 mm 2 m/s 732 mm Hg 91%
05:00 +15°C° 0 mm 2 m/s 732 mm Hg 85%
06:00 +16°C° 0 mm 2 m/s 732 mm Hg 79%
07:00 +18°C° 0 mm 3 m/s 732 mm Hg 74%
08:00 +19°C° 0 mm 3 m/s 732 mm Hg 68%
09:00 +21°C° 0 mm 4 m/s 732 mm Hg 61%
10:00 +23°C° 0 mm 4 m/s 731 mm Hg 55%
11:00 +23°C° 0 mm 5 m/s 731 mm Hg 54%
12:00 +24°C° 0 mm 6 m/s 731 mm Hg 53%
13:00 +24°C° 0 mm 7 m/s 731 mm Hg 52%
14:00 +23°C° 0 mm 8 m/s 730 mm Hg 56%
15:00 +22°C° 0 mm 8 m/s 730 mm Hg 60%
16:00 +21°C° 0 mm 9 m/s 730 mm Hg 65%
17:00 +18°C° 0 mm 8 m/s 730 mm Hg 67%
18:00 +17°C° 0 mm 8 m/s 730 mm Hg 69%
19:00 +15°C° 0 mm 7 m/s 730 mm Hg 70%
20:00 +14°C° 0 mm 7 m/s 730 mm Hg 71%
21:00 +13°C° 0 mm 6 m/s 730 mm Hg 71%
22:00 +12°C° 0 mm 5 m/s 730 mm Hg 71%
23:00 +12°C° 0 mm 5 m/s 730 mm Hg 73%
Mostrare altro

Abbiamo bisogno del tuo consenso

Meteoprog e i nostri fornitori di servizi possono memorizzare e accedere a dati personali come cookie, identificatori di dispositivi o altre tecnologie simili sul tuo dispositivo e possono elaborare tali dati per personalizzare i contenuti e gli annunci, nonché fornire funzionalità dei social media e analizzarne il traffico.

  • Archiviare e/o accedere alle informazioni sul tuo dispositivo

    Cookie, identificatori di dispositivi o altre informazioni possono essere memorizzati o resi accessibili sul tuo dispositivo per le finalità sopra indicate.

  • Annunci e contenuti personalizzati, misurazione di annunci e contenuti, approfondimenti sul pubblico e sviluppo di prodotti

    Gli annunci e i contenuti possono essere personalizzati in base a un profilo. È possibile aggiungere più dati per personalizzare meglio annunci e contenuti. È possibile misurare il rendimento degli annunci e dei contenuti. È possibile ricavare informazioni sul pubblico che ha visto gli annunci e i contenuti. Tali dati possono essere utilizzati per sviluppare o migliorare l'esperienza, i sistemi e il software dell'utente.

Cliccando su “Accetto”, acconsenti all'uso di cookie, identificatori di dispositivo, web beacon o altre tecnologie simili. Puoi modificare le impostazioni nel browser del tuo dispositivo.

Per determinati scopi, è possibile fare affidamento su interessi legali, piuttosto che sul consenso. Puoi approfondire questo argomento consultando la nostra Informativa sulla privacy e sui cookie.